Wetbulb
46.86 47.67 49.34 51.06 52.99 55.60 55.48 55.06 54.48 53.98 53.48 52.82 52.19 51.21 49.84 48.01 46.24 42.15 37.46 38.18 38.38 32.91 29.70 30.29 30.92 26.56 25.20 27.10 27.42 23.03 22.31 20.33 19.36 16.88 18.80 17.71 12.54 12.74 8.61 16.18 10.55 9.83 7.30 8.25 8.83 3.46 4.71 17.92 17.45 11.23 12.04 15.97 13.06 11.69
46.95 46.96 47.28 48.48 50.44 51.44 54.35 54.85 54.34 53.76 53.28 52.76 52.19 51.38 50.02 48.29 46.42 44.14 35.69 37.96 38.79 35.31 29.84 32.09 31.03 30.87 29.00 27.40 27.61 23.61 24.37 21.37 25.40 21.69 19.31 18.89 16.25 11.17 9.97 10.10 13.59 6.33 13.68 13.61 14.49 15.11 18.36 17.82 18.79 20.07 18.61 14.00 13.93 8.96
45.31 46.69 47.02 47.19 48.22 49.57 50.82 51.48 53.70 53.78 53.17 52.70 52.27 51.63 50.24 48.66 47.08 43.52 36.63 36.17 36.88 31.83 29.50 27.13 26.29 29.63 32.15 30.49 30.70 26.34 24.94 24.14 20.51 20.29 22.14 20.02 14.23 17.68 11.54 11.81 12.10 12.99 13.80 9.48 11.77 16.83 17.15 19.04 19.43 18.32 17.64 16.13 17.11 14.13
45.51 45.34 46.28 46.96 47.39 47.94 49.11 50.30 51.14 53.03 53.47 53.09 52.83 51.91 50.08 48.64 47.39 43.00 36.59 36.78 37.12 33.38 29.14 25.19 31.19 27.43 30.30 30.69 30.08 29.19 25.50 23.73 21.98 23.50 19.37 17.65 17.24 18.56 15.15 13.37 11.27 14.92 13.57 11.97 12.13 17.07 19.34 18.72 16.55 17.92 18.57 18.12 17.43 17.56
45.94 45.47 45.36 45.59 46.92 47.75 48.12 49.00 50.07 50.89 52.25 53.25 52.85 51.96 49.99 48.10 46.86 40.91 38.49 37.52 37.85 35.36 29.82 24.65 26.45 27.86 29.84 29.90 27.76 27.66 25.38 26.60 25.27 20.12 19.15 14.95 21.38 14.64 14.00 9.71 10.82 15.19 12.18 11.72 12.33 18.74 16.44 16.48 17.09 18.83 14.70 14.55 15.03 12.61
44.92 45.91 45.39 45.14 45.37 47.00 47.87 48.50 49.37 50.41 50.82 51.81 52.23 51.61 49.76 47.88 44.19 37.19 32.70 35.75 36.85 36.49 29.52 24.12 24.77 23.70 24.71 26.54 27.13 26.71 27.56 26.69 23.41 20.57 18.00 16.62 12.92 15.07 9.61 12.14 17.45 18.65 15.48 16.85 15.62 16.19 16.27 17.15 18.21 16.69 13.15 14.81 15.15 15.22
43.79 44.94 45.46 45.22 45.00 45.28 46.75 48.28 49.05 49.86 50.68 50.50 51.97 51.42 49.24 46.52 38.70 34.48 32.06 36.18 38.38 38.82 31.63 24.25 21.32 25.14 26.75 27.05 27.31 26.92 27.15 26.02 22.83 18.89 15.97 16.06 12.31 16.66 12.10 12.04 16.30 18.85 18.96 17.07 18.06 13.20 12.90 16.57 13.65 14.25 14.75 15.56 16.86 14.58
42.80 43.67 45.46 45.30 45.01 44.80 45.13 46.84 48.52 49.58 50.65 50.66 51.38 50.96 48.06 43.10 39.11 34.31 35.43 38.85 38.02 34.28 33.80 30.04 20.32 19.59 26.52 23.18 21.48 27.20 23.92 24.32 20.65 17.50 15.72 13.95 12.53 14.98 10.54 16.50 11.48 10.60 11.73 13.07 15.65 14.38 13.05 12.50 12.68 12.57 12.86 12.56 11.95 10.87
43.22 43.29 43.99 45.50 44.98 44.60 44.35 45.38 47.29 48.80 50.33 50.80 48.14 42.14 34.78 32.84 31.56 31.42 37.40 36.39 35.42 34.15 28.19 26.59 18.68 18.23 24.17 24.12 22.24 21.86 23.58 17.56 19.89 12.31 14.19 17.05 13.97 11.05 15.79 13.51 15.76 12.13 11.76 10.11 12.59 10.55 9.95 8.79 8.18 9.57 7.27 7.34 7.49 6.80
43.60 43.74 44.13 44.87 45.26 44.98 44.16 44.57 46.59 48.13 45.18 42.87 38.30 32.76 29.03 31.10 38.45 35.73 30.86 27.18 27.69 28.98 28.90 26.85 23.55 17.39 23.23 21.72 19.81 18.88 20.13 17.95 10.19 14.23 17.41 12.76 11.21 20.47 21.44 17.92 16.16 16.09 13.95 12.25 8.10 5.62 5.07 5.87 6.19 3.32 3.99 1.04 1.43 3.64
43.79 43.65 43.99 44.46 45.04 45.14 44.10 43.96 45.82 45.64 43.55 35.88 30.34 26.73 31.33 37.66 31.89 30.08 24.54 23.50 24.27 24.39 26.81 26.19 23.19 16.85 23.06 20.69 19.98 22.64 18.14 19.13 8.99 12.39 10.35 9.67 11.93 19.00 17.55 20.36 15.07 13.42 14.58 8.47 6.88 5.19 6.97 7.21 3.83 2.50 3.73 2.40 2.33 3.77
43.84 43.60 43.86 44.15 44.61 44.47 44.06 43.89 45.57 40.64 35.84 34.72 32.04 33.05 31.63 28.50 26.73 23.95 21.77 25.54 23.66 24.22 24.68 21.18 21.29 22.12 21.30 25.45 20.13 18.83 17.67 15.15 13.29 14.02 6.91 5.56 16.81 17.87 12.29 8.66 13.88 11.76 11.15 7.53 3.61 4.20 1.44 1.99 1.00 1.14 0.25 0.64 1.66 2.91
43.82 43.65 43.79 43.66 43.69 44.28 44.08 43.96 45.44 40.69 37.66 32.88 30.46 26.48 25.19 24.56 20.15 20.71 18.55 21.16 21.65 23.01 21.21 19.51 17.39 18.78 20.18 23.75 18.72 17.87 13.47 12.96 17.99 9.31 7.78 13.00 21.85 14.71 12.84 10.55 2.77 2.45 5.86 5.78 1.95 1.04 1.92 -0.22 2.67 3.48 1.37 0.28 4.57 8.42
43.73 43.56 43.60 43.52 43.42 44.09 44.47 44.69 43.71 40.08 34.73 30.03 25.46 19.16 21.55 18.65 21.21 23.90 25.01 24.02 24.87 23.91 20.81 21.40 18.24 20.47 20.43 18.54 17.22 14.44 17.03 13.90 8.39 5.03 8.83 18.72 21.79 17.07 11.73 9.04 7.95 6.26 6.80 7.06 7.09 5.76 5.85 9.07 8.30 10.02 10.93 10.85 11.77 12.22
43.62 43.34 43.34 43.30 43.70 43.93 44.49 44.90 43.21 36.56 32.92 29.02 28.50 22.98 19.93 26.45 26.05 24.60 22.00 22.00 22.63 24.12 23.27 19.38 20.00 20.77 18.30 14.34 17.72 12.92 9.61 9.04 10.12 11.59 18.69 23.44 20.38 15.51 12.35 11.96 11.42 9.61 8.88 9.81 10.12 10.52 11.59 12.45 11.45 10.96 12.33 11.62 12.59 14.14
43.23 42.39 40.52 42.56 42.94 43.63 44.16 43.20 39.18 32.43 31.15 30.06 29.56 26.63 24.55 24.91 21.23 20.43 22.34 20.05 24.16 24.51 24.61 23.84 18.13 16.43 15.25 16.58 11.26 11.45 11.28 11.57 17.17 18.85 24.20 20.28 17.06 16.50 15.06 16.02 15.79 14.22 13.48 14.14 14.55 14.89 14.96 14.73 13.16 11.31 11.82 11.58 11.80 12.28
42.34 37.49 41.75 42.75 43.12 43.57 43.66 33.76 31.80 30.28 29.33 25.88 24.81 26.25 26.30 25.28 26.90 21.68 22.77 21.73 26.29 23.86 23.01 20.64 16.33 18.01 17.80 13.75 13.11 16.38 14.66 20.32 24.48 22.62 21.00 20.25 18.35 17.56 16.87 17.79 18.01 16.63 15.90 15.43 15.01 15.02 15.06 16.34 14.91 13.80 10.92 12.06 11.01 11.98
37.44 39.12 42.21 43.04 42.09 39.45 29.98 30.94 30.98 27.09 22.84 24.10 21.55 22.07 25.50 23.94 22.91 22.09 22.30 24.70 24.43 24.76 23.11 20.86 19.26 14.60 15.17 14.86 15.05 19.49 20.67 21.35 20.69 20.27 19.38 20.17 19.89 18.87 19.10 18.09 17.88 17.27 16.43 15.94 15.08 14.74 14.58 14.28 13.37 12.79 12.70 12.87 10.60 11.12
38.63 39.03 41.64 42.75 37.24 32.86 28.53 24.09 26.18 22.84 21.30 19.29 15.93 17.25 21.86 22.88 23.37 24.12 23.42 25.12 25.34 26.61 22.86 20.92 19.73 18.43 18.33 20.22 22.69 23.19 21.55 18.75 16.69 16.68 17.34 19.23 19.58 18.67 18.45 17.99 17.27 16.39 15.81 14.74 13.95 13.50 13.62 14.10 13.31 12.61 12.82 13.37 11.72 12.67
41.48 41.54 41.69 40.58 35.28 26.51 21.95 20.70 25.19 20.25 15.99 15.49 16.03 18.32 19.62 20.64 22.00 22.59 22.98 23.26 23.15 22.76 20.58 18.45 19.44 21.67 22.50 24.04 25.03 23.35 22.29 19.98 17.92 15.82 15.68 17.17 17.63 17.02 17.30 16.90 16.43 16.20 14.90 13.89 13.71 17.23 12.73 12.57 14.41 14.96 14.28 13.85 11.59 12.29
38.56 35.96 35.08 28.26 23.88 23.33 21.87 20.03 15.81 12.46 14.30 11.66 13.06 17.06 16.29 20.47 19.92 19.79 20.85 23.04 20.91 20.97 20.42 22.33 21.21 22.61 21.59 21.04 21.09 22.26 20.86 20.76 20.56 20.06 18.58 15.48 16.72 17.02 15.65 15.35 15.45 14.94 12.58 12.25 10.47 11.14 16.83 13.17 13.68 14.42 9.41 13.51 14.63 14.48
31.56 33.87 26.58 26.92 20.55 19.35 17.06 18.51 17.80 15.99 13.51 11.54 11.99 17.00 15.52 14.86 16.40 19.19 21.45 18.84 18.77 22.11 21.85 20.38 21.35 21.58 18.96 17.50 17.86 20.70 21.56 20.57 19.80 23.16 23.68 21.51 15.54 14.54 14.24 14.66 14.18 12.88 12.69 12.75 12.55 12.36 13.07 13.66 13.61 12.23 12.26 12.30 15.08 13.24
33.55 30.44 25.79 24.01 18.32 16.64 11.75 16.41 14.94 14.63 9.57 9.00 11.44 12.82 13.73 14.80 17.43 20.85 15.62 18.28 19.36 20.99 21.21 20.84 20.79 19.10 18.35 16.90 17.94 17.89 18.58 20.31 20.34 20.34 20.62 18.14 17.69 17.10 15.68 14.90 15.44 13.73 12.33 12.58 14.07 13.09 11.53 17.42 16.92 13.74 11.90 12.72 11.62 10.15
31.41 25.50 23.07 19.71 18.03 11.11 12.18 6.00 13.24 9.01 8.60 8.20 10.90 12.59 11.98 13.08 13.99 12.93 12.30 15.13 16.95 19.72 20.01 19.81 17.77 15.18 15.65 16.69 16.01 16.64 17.40 19.77 18.20 16.95 17.68 16.72 15.04 14.53 16.07 15.34 15.81 14.80 14.77 14.18 12.60 11.87 11.44 10.10 16.86 9.81 8.29 6.90 6.40 5.41
23.29 20.43 20.98 12.32 14.85 9.05 3.99 5.62 6.23 6.97 1.05 5.99 6.40 3.23 7.19 10.67 8.79 9.61 8.41 11.42 16.81 17.91 19.29 19.20 17.58 18.66 19.00 17.36 16.34 16.82 17.20 19.31 17.57 15.36 14.13 17.24 15.19 14.68 13.82 14.02 14.15 13.50 14.65 13.20 11.19 11.53 9.76 8.00 6.67 5.89 5.84 4.77 3.58 2.04
19.29 16.29 11.37 7.43 5.84 6.03 6.00 1.09 4.08 5.38 4.40 3.99 7.40 5.89 7.27 7.60 7.63 9.01 11.76 11.27 14.23 16.29 18.26 18.86 18.11 18.24 18.68 18.75 16.88 15.66 15.79 17.63 18.96 16.03 13.10 16.66 17.32 15.96 13.47 11.72 10.02 9.95 12.14 11.18 10.88 9.06 8.85 7.63 5.78 3.21 2.73 6.18 15.66 9.95
14.34 10.20 11.71 16.52 15.24 13.57 10.76 11.23 11.76 8.42 5.25 5.41 4.56 1.69 6.10 6.27 9.20 12.07 9.94 6.77 7.21 8.56 8.84 10.04 12.93 18.04 19.04 17.03 17.33 17.80 18.14 19.26 16.92 16.89 16.24 15.74 16.06 17.83 16.99 13.88 11.68 13.40 14.01 12.65 11.57 10.66 9.35 7.62 4.94 4.12 2.14 2.39 2.31 1.92
10.34 11.20 8.32 10.14 10.72 11.59 7.78 9.19 5.39 5.12 5.76 7.92 7.65 0.36 6.37 11.73 9.30 4.87 7.23 7.27 6.59 7.61 8.96 11.11 11.80 14.41 18.03 16.99 16.83 16.65 12.83 13.05 13.26 14.01 13.75 12.25 11.38 11.87 12.39 13.44 15.23 20.48 14.02 13.03 10.68 9.52 8.80 7.73 6.32 4.86 1.35 2.54 1.18 1.18
11.10 13.47 12.13 7.08 12.18 12.91 10.77 9.80 9.82 7.59 7.17 9.97 8.29 11.05 7.89 4.48 2.90 1.78 3.88 4.04 5.66 7.96 9.75 10.91 10.21 11.23 12.50 13.78 14.46 14.61 14.87 16.06 14.72 11.84 12.10 10.75 8.73 8.77 7.85 11.54 15.61 12.51 12.65 14.78 20.50 13.44 6.85 6.66 6.26 6.13 5.11 3.57 2.98 0.15
6.00 11.20 9.11 9.77 9.57 8.33 3.04 1.97 3.20 4.14 5.90 6.15 7.81 7.94 6.04 3.87 3.03 3.99 1.81 0.75 1.70 3.18 6.12 7.66 10.91 11.52 9.53 10.41 10.20 9.28 9.20 11.46 13.51 16.69 14.53 13.22 14.30 11.38 10.05 9.91 10.41 8.43 9.08 9.68 8.66 9.45 21.81 19.42 17.55 16.58 3.24 -1.49 -1.64 -2.34
10.52 10.75 6.68 5.94 1.57 0.18 1.09 1.38 3.05 4.73 6.01 5.88 6.76 6.94 4.45 3.09 3.42 3.03 0.48 -0.14 4.15 6.26 6.51 7.59 4.44 3.76 9.16 10.04 10.07 10.19 9.31 8.02 7.75 10.53 10.35 12.01 10.65 10.76 10.74 8.95 6.69 6.06 4.60 4.11 3.31 1.15 1.39 3.99 1.41 3.88 4.90 2.01 1.61 5.21
8.54 7.54 8.12 3.76 0.94 0.76 1.47 3.00 4.71 5.47 5.97 6.11 2.99 5.98 4.30 6.11 0.67 0.26 -0.45 -1.00 -1.58 -3.42 1.57 -1.99 -2.27 -1.78 -0.24 4.23 5.75 5.36 12.75 8.15 6.83 6.24 6.28 6.80 6.11 5.32 4.46 3.94 4.36 4.82 3.29 2.35 1.27 -0.25 -3.45 0.38 -0.38 0.90 1.52 -0.82 -2.87 -3.70
4.30 4.47 4.42 2.24 0.37 0.95 2.32 3.95 5.58 3.74 4.38 1.94 -1.02 0.23 -0.65 1.04 -3.90 -0.27 3.79 1.75 -2.76 -4.04 -4.70 -4.17 -3.34 -3.02 -2.68 -1.61 -1.40 1.37 4.75 3.74 7.85 15.17 17.10 16.02 14.12 9.24 2.50 0.81 2.13 2.01 1.54 0.18 -1.24 -2.23 -3.34 -4.50 -5.03 -5.26 -5.41 -5.08 -5.84 -6.68
MSLP
1022.03 1021.91 1021.61 1021.14 1020.37 1019.93 1020.29 1020.84 1021.41 1021.96 1022.52 1023.47 1024.08 1024.75 1025.24 1025.67 1026.28 1026.91 1027.64 1027.90 1028.05 1028.82 1028.71 1028.98 1028.85 1028.90 1029.81 1030.12 1030.76 1032.17 1033.04 1033.32 1033.60 1033.47 1033.00 1032.83 1033.32 1033.60 1033.83 1032.56 1032.77 1033.59 1034.21 1033.66 1033.07 1031.34 1027.81 1025.88 1026.24 1027.21 1026.67 1026.55 1027.31 1027.63
1021.71 1021.76 1021.69 1021.44 1021.02 1020.59 1020.10 1019.88 1020.37 1021.01 1021.42 1022.18 1023.09 1023.91 1024.57 1025.06 1025.74 1026.35 1027.41 1027.69 1027.83 1028.86 1029.73 1029.44 1029.71 1029.75 1029.54 1029.72 1030.35 1031.42 1031.61 1031.67 1031.85 1032.56 1033.01 1033.00 1033.43 1033.71 1033.64 1033.36 1032.54 1032.91 1031.87 1031.65 1030.45 1027.38 1025.64 1025.63 1025.32 1025.72 1026.08 1026.51 1026.71 1027.29
1021.58 1021.61 1021.76 1021.42 1021.12 1020.87 1020.53 1020.37 1020.19 1020.17 1020.43 1021.02 1021.74 1022.69 1023.67 1024.41 1025.01 1025.50 1026.37 1027.47 1027.89 1029.19 1029.94 1029.97 1030.01 1030.26 1030.06 1030.20 1030.24 1031.07 1031.53 1031.51 1032.15 1032.27 1032.83 1033.57 1034.06 1033.26 1033.68 1032.84 1032.08 1031.59 1031.28 1031.15 1029.92 1025.85 1025.54 1025.22 1025.11 1025.49 1026.03 1026.61 1026.65 1026.87
1021.59 1021.49 1021.55 1021.47 1021.04 1020.76 1020.54 1020.13 1020.03 1019.82 1019.85 1020.06 1020.36 1021.17 1022.04 1023.10 1024.13 1024.95 1025.45 1026.05 1026.52 1027.72 1029.12 1029.98 1030.10 1030.23 1030.62 1030.55 1030.40 1030.80 1031.55 1032.08 1032.43 1032.77 1033.27 1033.84 1033.88 1032.91 1032.82 1032.35 1032.00 1030.60 1030.84 1029.76 1028.48 1025.94 1025.43 1025.26 1025.64 1026.11 1026.20 1026.55 1026.84 1026.54
1020.97 1021.19 1021.06 1020.95 1020.79 1020.49 1020.01 1019.98 1019.83 1019.65 1019.34 1019.25 1019.53 1020.10 1020.63 1021.59 1023.07 1024.53 1025.05 1025.04 1025.05 1025.96 1028.05 1029.86 1030.35 1030.63 1030.51 1030.69 1030.91 1031.04 1031.45 1031.95 1032.51 1033.16 1033.53 1033.65 1033.51 1033.61 1032.91 1033.02 1030.71 1028.78 1027.87 1027.95 1026.39 1025.29 1025.61 1026.02 1026.15 1026.39 1026.69 1026.95 1027.09 1027.00
1020.87 1020.59 1020.53 1020.47 1020.60 1020.21 1020.02 1019.62 1019.50 1019.35 1018.90 1018.60 1018.72 1019.18 1020.11 1021.16 1022.92 1024.69 1026.12 1025.09 1024.72 1024.93 1027.09 1029.23 1030.50 1030.62 1030.76 1030.98 1031.24 1031.36 1031.40 1031.92 1032.06 1032.58 1033.19 1033.14 1033.70 1033.98 1033.66 1031.67 1026.46 1026.10 1025.64 1025.53 1025.78 1025.83 1026.24 1026.35 1026.65 1026.93 1027.36 1027.35 1027.12 1027.01
1020.44 1020.03 1019.84 1019.86 1019.99 1020.08 1019.59 1019.53 1019.22 1018.88 1018.57 1017.96 1017.74 1018.40 1019.63 1020.65 1021.94 1023.88 1024.12 1023.30 1023.30 1024.21 1026.45 1028.77 1029.66 1030.51 1031.04 1031.03 1031.48 1031.90 1032.02 1032.00 1032.07 1032.51 1032.94 1032.98 1033.72 1033.53 1032.68 1029.78 1025.05 1025.02 1025.21 1025.71 1025.81 1025.96 1026.34 1026.52 1027.16 1027.57 1027.87 1027.78 1027.65 1027.10
1019.16 1019.33 1019.35 1019.22 1019.25 1019.45 1019.40 1019.09 1018.88 1018.33 1017.68 1017.41 1017.17 1017.74 1019.66 1022.19 1023.08 1023.71 1023.94 1023.87 1024.24 1024.72 1026.07 1027.28 1029.11 1030.50 1030.89 1030.76 1031.44 1031.64 1031.90 1032.27 1032.19 1032.13 1032.54 1032.49 1033.25 1032.96 1030.35 1025.22 1025.04 1025.48 1025.81 1026.10 1026.18 1026.30 1026.53 1026.95 1027.45 1028.01 1028.26 1028.39 1028.22 1027.85
1018.59 1018.40 1018.56 1018.79 1018.57 1018.56 1018.78 1018.73 1018.65 1017.88 1017.34 1016.54 1017.11 1019.54 1022.13 1023.50 1023.92 1024.16 1024.47 1024.82 1024.87 1025.42 1025.52 1025.89 1027.23 1028.95 1030.02 1030.30 1031.22 1031.83 1031.62 1032.20 1032.38 1032.38 1032.02 1032.04 1031.10 1029.29 1023.86 1023.81 1024.29 1024.82 1025.50 1025.89 1026.51 1027.17 1027.61 1027.96 1028.29 1028.84 1029.11 1029.19 1029.06 1028.56
1017.47 1017.39 1017.68 1018.09 1018.13 1017.96 1018.14 1018.33 1018.10 1017.53 1017.53 1017.74 1018.56 1020.65 1022.53 1023.01 1023.70 1024.22 1025.69 1025.88 1026.73 1025.78 1025.21 1025.42 1026.31 1028.09 1028.66 1029.51 1030.64 1031.42 1031.45 1031.20 1031.74 1031.26 1031.38 1030.73 1027.38 1023.51 1022.26 1022.73 1022.99 1023.88 1025.00 1025.91 1027.03 1028.17 1028.20 1028.24 1028.51 1029.01 1029.54 1029.38 1029.27 1028.97
1016.51 1016.35 1017.00 1017.10 1017.18 1017.61 1017.63 1017.44 1017.72 1017.57 1017.49 1018.33 1019.85 1021.72 1022.95 1023.85 1023.36 1023.57 1024.36 1025.29 1025.44 1025.00 1024.39 1024.70 1025.44 1027.00 1028.12 1028.33 1029.12 1029.80 1030.04 1030.33 1030.79 1030.39 1030.99 1028.68 1025.25 1021.35 1020.75 1021.72 1022.82 1023.61 1024.50 1025.54 1025.83 1026.56 1027.22 1027.88 1028.67 1029.04 1029.43 1029.30 1029.29 1028.96
1015.07 1015.50 1015.80 1016.25 1016.02 1016.62 1016.76 1016.87 1017.23 1017.12 1017.41 1018.16 1019.88 1021.86 1023.51 1023.82 1023.40 1023.03 1022.76 1022.95 1023.27 1022.34 1022.70 1023.53 1025.00 1025.85 1026.97 1027.36 1028.01 1029.01 1029.04 1029.90 1029.62 1029.72 1030.02 1026.90 1021.47 1020.08 1021.14 1022.01 1022.78 1023.58 1024.59 1025.64 1026.27 1026.96 1027.40 1028.01 1028.46 1028.68 1028.90 1028.97 1028.93 1028.51
1013.85 1014.40 1014.82 1015.07 1015.16 1015.42 1015.64 1016.47 1016.47 1016.96 1017.51 1018.70 1019.99 1021.28 1021.80 1022.54 1022.33 1021.72 1020.75 1019.76 1019.57 1020.18 1021.21 1022.37 1024.17 1025.16 1026.49 1026.79 1027.47 1028.00 1028.55 1028.87 1028.96 1029.01 1026.29 1021.52 1019.66 1019.98 1021.04 1022.08 1023.32 1024.08 1024.81 1025.77 1026.37 1026.85 1027.19 1027.95 1028.42 1028.37 1028.43 1028.69 1028.39 1028.00
1012.56 1013.11 1013.64 1013.82 1014.21 1014.46 1014.91 1015.62 1016.24 1016.21 1016.69 1017.73 1018.73 1020.11 1020.20 1020.17 1019.26 1018.02 1017.71 1017.63 1017.18 1017.64 1018.90 1020.45 1022.66 1023.55 1024.67 1025.68 1026.44 1026.96 1027.37 1028.09 1027.93 1026.32 1021.92 1018.44 1018.29 1019.59 1020.90 1021.89 1023.19 1024.35 1024.94 1025.47 1025.79 1026.18 1026.36 1026.99 1027.16 1027.38 1027.39 1027.51 1027.73 1027.48
1011.22 1011.82 1012.51 1012.85 1013.06 1013.74 1014.12 1014.73 1015.46 1015.60 1015.87 1016.58 1016.97 1016.85 1017.32 1016.30 1016.32 1016.04 1016.71 1017.41 1017.97 1018.24 1018.69 1020.51 1021.66 1022.47 1023.27 1024.40 1024.60 1025.63 1026.59 1025.54 1023.60 1019.94 1017.43 1016.51 1017.50 1018.96 1020.48 1021.26 1022.21 1023.28 1024.50 1025.10 1025.39 1025.80 1026.13 1026.56 1026.36 1026.33 1026.68 1026.75 1027.02 1027.01
1010.20 1010.98 1011.30 1011.65 1012.08 1012.64 1013.23 1013.93 1014.60 1015.27 1015.09 1015.09 1015.16 1015.02 1015.20 1015.77 1015.80 1016.68 1016.55 1016.66 1017.31 1018.54 1019.07 1019.43 1020.32 1021.17 1021.27 1021.64 1022.65 1022.15 1022.34 1019.67 1016.85 1016.14 1015.38 1016.05 1017.10 1018.73 1019.96 1020.58 1021.19 1022.12 1023.05 1023.82 1024.40 1024.85 1025.39 1025.51 1025.79 1025.95 1026.00 1026.42 1026.64 1026.63
1009.11 1009.33 1009.83 1010.46 1011.19 1011.92 1012.66 1014.09 1014.64 1014.78 1014.38 1013.99 1014.17 1014.22 1014.45 1014.54 1014.20 1015.21 1016.02 1016.63 1016.75 1017.63 1017.52 1017.95 1018.59 1018.67 1019.61 1019.68 1019.13 1018.33 1016.51 1014.71 1013.97 1014.39 1014.64 1015.25 1016.26 1017.85 1019.09 1019.93 1020.91 1022.28 1022.85 1023.51 1023.80 1024.01 1024.09 1024.92 1025.30 1025.84 1025.79 1025.94 1026.21 1026.27
1007.84 1008.48 1008.95 1009.47 1010.15 1011.21 1012.83 1013.48 1013.78 1013.57 1013.67 1013.76 1014.43 1014.14 1014.20 1014.24 1014.35 1014.95 1015.41 1016.01 1016.44 1016.20 1016.60 1016.28 1016.43 1016.97 1016.50 1015.79 1014.18 1013.14 1013.25 1013.31 1013.70 1013.69 1013.79 1014.67 1015.90 1017.23 1018.30 1019.49 1020.95 1022.09 1022.87 1023.52 1023.72 1023.86 1024.13 1024.48 1025.12 1025.60 1025.70 1025.74 1026.03 1026.00
1006.96 1007.73 1008.27 1009.00 1010.03 1011.41 1012.58 1013.62 1013.37 1013.21 1013.64 1013.85 1014.24 1014.66 1014.58 1014.37 1014.24 1014.27 1015.24 1015.28 1015.55 1015.31 1015.43 1015.71 1015.09 1014.16 1012.92 1012.20 1011.01 1011.22 1012.10 1012.67 1013.23 1013.89 1014.48 1014.97 1015.69 1016.74 1018.11 1019.56 1020.97 1022.08 1022.91 1023.35 1023.62 1023.88 1024.51 1024.79 1024.62 1024.97 1025.12 1025.53 1026.21 1025.81
1006.42 1007.25 1008.00 1008.61 1009.62 1011.44 1012.42 1013.22 1013.29 1013.48 1014.06 1014.20 1014.69 1015.17 1015.27 1014.95 1014.85 1014.17 1015.17 1015.47 1015.77 1015.65 1015.37 1014.33 1012.58 1011.50 1010.84 1010.23 1010.11 1010.66 1011.42 1012.19 1012.61 1013.86 1014.84 1015.65 1016.27 1016.96 1018.24 1019.30 1020.57 1021.70 1022.63 1023.13 1023.15 1023.15 1024.15 1024.64 1024.72 1024.56 1024.89 1025.59 1026.10 1025.86
1006.46 1007.73 1008.46 1008.70 1011.07 1011.90 1012.61 1012.98 1013.60 1014.21 1014.49 1014.79 1015.15 1015.27 1015.31 1014.96 1014.87 1014.50 1014.97 1015.46 1015.47 1014.47 1013.42 1011.71 1010.95 1010.55 1010.76 1010.89 1010.35 1010.44 1011.21 1011.25 1011.81 1011.86 1012.30 1014.79 1016.27 1017.04 1018.36 1019.46 1020.57 1021.62 1022.52 1023.02 1022.92 1023.46 1024.13 1024.30 1024.36 1024.17 1024.56 1025.07 1025.40 1025.59
1006.93 1007.96 1008.71 1010.15 1011.56 1012.88 1013.58 1013.91 1014.07 1014.66 1015.03 1015.32 1015.57 1015.22 1015.33 1015.13 1014.92 1014.84 1015.16 1015.39 1014.14 1012.20 1011.63 1011.06 1010.84 1011.00 1011.19 1011.14 1010.86 1010.76 1011.00 1011.18 1011.57 1012.47 1013.39 1014.34 1016.05 1017.27 1018.44 1019.11 1020.42 1021.46 1022.03 1022.24 1022.92 1023.30 1023.77 1023.72 1024.03 1024.31 1024.68 1024.87 1025.07 1025.43
1007.04 1007.16 1008.97 1010.25 1011.71 1012.75 1014.31 1014.39 1014.23 1014.61 1015.05 1015.58 1015.49 1015.42 1015.11 1014.93 1014.70 1014.96 1014.99 1013.73 1011.64 1010.26 1010.30 1010.63 1010.73 1010.82 1011.14 1011.34 1011.45 1011.19 1011.15 1011.12 1011.44 1012.57 1013.45 1013.74 1015.25 1016.67 1017.79 1018.75 1019.52 1020.70 1022.13 1022.33 1022.47 1023.11 1023.54 1023.59 1023.92 1024.49 1024.74 1024.85 1025.12 1025.33
1006.23 1007.52 1008.97 1010.20 1011.21 1013.06 1014.01 1014.21 1014.24 1014.85 1015.13 1015.45 1015.35 1015.25 1015.09 1014.94 1015.17 1014.99 1014.09 1011.74 1009.84 1009.63 1010.05 1010.24 1010.64 1011.37 1011.69 1011.80 1011.61 1011.23 1011.34 1011.51 1012.04 1012.95 1013.36 1014.10 1015.74 1017.03 1017.65 1018.04 1019.23 1019.66 1020.91 1021.95 1022.47 1023.13 1023.34 1023.82 1024.28 1024.51 1024.72 1024.90 1025.11 1025.37
1006.78 1008.69 1009.33 1010.65 1011.47 1012.46 1013.39 1014.11 1014.35 1014.69 1014.98 1014.90 1015.13 1015.46 1015.43 1015.51 1015.25 1014.66 1013.33 1011.21 1009.93 1009.78 1009.91 1010.15 1010.36 1010.36 1010.44 1010.84 1011.26 1011.26 1011.29 1011.27 1011.92 1012.82 1013.62 1014.46 1015.36 1016.76 1017.79 1018.38 1019.39 1019.61 1020.50 1021.70 1022.52 1022.92 1023.53 1023.98 1024.13 1024.47 1024.73 1024.90 1025.26 1025.49
1006.89 1008.58 1009.40 1009.95 1010.83 1011.45 1012.31 1013.12 1013.65 1013.77 1014.08 1014.57 1014.65 1015.01 1015.32 1015.51 1015.14 1013.49 1011.97 1011.61 1011.51 1011.25 1011.12 1010.82 1010.42 1010.46 1010.11 1009.90 1010.32 1011.02 1011.30 1011.47 1011.95 1012.93 1013.83 1013.98 1014.39 1015.35 1016.89 1017.84 1018.93 1019.83 1020.29 1021.17 1021.77 1022.66 1023.29 1023.61 1024.10 1024.39 1024.74 1024.95 1024.94 1025.20
1007.55 1008.91 1009.45 1009.75 1010.21 1010.95 1011.94 1012.40 1012.74 1013.13 1013.60 1013.62 1014.19 1014.94 1015.16 1015.00 1013.85 1012.58 1012.45 1013.16 1013.31 1013.19 1013.12 1012.51 1011.52 1010.24 1009.71 1010.13 1010.62 1010.98 1011.52 1012.12 1012.40 1012.44 1013.35 1014.47 1014.72 1014.94 1015.38 1016.43 1017.40 1018.45 1019.44 1020.44 1021.22 1021.63 1022.46 1023.23 1023.79 1023.90 1024.46 1024.79 1025.04 1025.37
1008.19 1008.82 1009.25 1010.13 1010.47 1010.74 1011.64 1012.24 1012.53 1012.69 1012.50 1012.70 1013.50 1014.04 1013.95 1013.76 1014.02 1014.36 1014.31 1014.53 1014.47 1013.98 1013.36 1012.38 1011.60 1010.80 1010.02 1010.30 1010.92 1011.74 1012.65 1013.17 1013.65 1013.86 1014.41 1015.49 1016.07 1016.17 1015.84 1016.08 1016.89 1017.97 1018.86 1019.74 1020.40 1020.94 1021.85 1022.55 1023.14 1023.34 1024.03 1024.53 1024.84 1024.91
1009.03 1009.21 1009.53 1010.37 1010.90 1011.43 1012.01 1012.55 1012.60 1012.86 1013.08 1012.90 1013.26 1013.50 1014.23 1015.26 1016.30 1016.37 1015.88 1015.46 1014.57 1013.72 1013.14 1012.51 1012.27 1011.87 1011.50 1011.64 1011.89 1012.46 1012.82 1012.66 1013.14 1013.87 1014.44 1015.57 1016.58 1016.96 1016.77 1017.03 1017.81 1018.53 1018.83 1019.36 1020.10 1020.77 1021.32 1021.93 1022.54 1022.97 1023.65 1024.19 1024.38 1024.47
1009.69 1009.72 1010.00 1010.52 1011.37 1012.27 1013.33 1013.85 1013.90 1013.98 1013.86 1013.87 1013.87 1014.30 1015.19 1016.39 1017.35 1017.44 1016.91 1016.06 1015.28 1014.73 1014.36 1013.94 1013.24 1012.94 1012.93 1012.74 1013.03 1013.21 1013.52 1013.81 1014.10 1013.68 1013.99 1014.50 1015.03 1015.86 1016.95 1017.72 1018.34 1018.70 1018.89 1019.48 1020.14 1020.71 1020.99 1021.52 1021.89 1022.58 1023.74 1024.39 1024.36 1024.65
1010.34 1010.36 1010.85 1011.45 1012.59 1013.70 1014.31 1014.57 1014.61 1014.51 1014.35 1014.36 1014.41 1014.56 1015.51 1016.53 1017.41 1017.84 1017.67 1017.10 1016.25 1015.70 1015.06 1015.01 1014.88 1014.62 1014.41 1014.29 1014.09 1013.98 1014.45 1014.95 1014.62 1014.24 1014.28 1014.51 1015.16 1016.04 1016.79 1017.54 1018.14 1018.59 1019.05 1019.58 1020.34 1021.16 1021.36 1021.59 1022.05 1022.76 1023.51 1024.00 1024.26 1024.43
1011.06 1011.16 1011.42 1012.39 1013.43 1014.28 1014.65 1014.64 1014.39 1014.29 1014.40 1014.57 1015.17 1015.37 1016.09 1016.48 1017.80 1018.67 1019.19 1018.76 1018.20 1017.64 1017.44 1017.64 1017.35 1017.15 1016.72 1016.23 1015.61 1015.45 1014.81 1015.24 1015.27 1015.18 1015.37 1015.62 1016.10 1016.72 1017.20 1017.69 1018.21 1018.74 1019.26 1020.04 1020.78 1021.29 1021.49 1021.82 1022.40 1022.91 1023.30 1023.60 1023.87 1024.15
1012.18 1012.31 1012.62 1013.14 1013.93 1014.28 1014.42 1014.35 1014.12 1014.32 1014.56 1015.33 1016.23 1016.76 1017.32 1017.83 1019.30 1020.33 1020.19 1020.15 1020.04 1019.52 1019.12 1019.13 1019.07 1018.49 1018.17 1018.17 1017.76 1016.83 1016.30 1016.21 1016.09 1015.99 1016.05 1016.36 1016.77 1017.15 1017.42 1017.85 1018.29 1018.87 1019.63 1020.41 1021.00 1021.47 1021.82 1022.15 1022.53 1022.83 1023.06 1023.37 1023.60 1023.78
Wind_Speed
10 14 14 15 17 22 25 25 25 25 24 23 22 21 19 18 17 6 2 2 4 3 1 2 3 5 3 3 5 4 4 2 1 1 2 2 2 3 2 5 6 8 7 5 3 4 11 4 3 4 7 7 5 5
12 11 11 14 18 15 11 23 26 25 25 25 24 23 22 21 21 11 3 2 1 3 0 3 5 4 3 2 4 3 1 4 5 2 1 2 2 2 2 6 2 4 8 5 9 8 2 7 8 5 4 5 4 3
12 12 13 11 14 15 11 16 13 24 26 27 27 27 25 23 25 16 4 5 4 3 1 0 2 3 2 4 3 4 2 3 2 2 2 1 5 3 4 8 2 5 4 4 4 4 5 4 4 1 3 5 8 2
12 13 13 14 12 11 14 13 13 12 25 28 30 30 29 27 26 16 5 5 4 4 3 2 2 3 2 1 4 3 5 4 5 1 2 3 3 3 4 3 4 5 7 7 8 13 12 4 1 4 7 7 8 13
14 14 15 15 15 14 12 14 15 11 12 27 29 30 31 30 27 8 1 5 2 6 3 2 2 2 1 3 5 5 6 5 3 2 2 4 2 1 2 2 7 9 10 9 9 3 4 1 3 5 4 5 6 5
19 15 14 15 17 16 16 14 14 12 12 13 26 29 30 29 26 6 2 4 6 4 5 2 2 2 2 6 6 5 4 1 2 4 4 1 1 2 2 6 9 13 5 6 4 5 1 5 5 3 3 6 7 7
20 19 16 15 15 17 15 16 15 13 11 17 20 27 29 33 14 5 5 2 17 5 4 1 3 2 5 4 2 2 1 1 2 3 2 3 2 4 4 9 6 9 10 5 4 5 3 4 3 5 5 6 10 8
21 20 20 17 15 15 17 16 15 15 10 12 10 24 27 21 9 1 5 12 4 6 3 3 2 3 5 4 3 1 3 1 2 3 1 3 2 3 11 12 3 2 3 2 7 6 4 2 2 4 3 5 8 8
22 21 19 19 17 14 15 17 16 14 15 1 30 32 10 1 2 2 11 6 3 3 5 5 8 6 5 3 3 0 1 3 1 3 3 4 5 14 15 8 9 10 9 5 5 2 2 0 4 6 4 6 4 8
21 20 19 19 18 14 13 15 16 13 30 33 10 4 4 4 26 14 4 4 1 4 2 2 3 4 5 3 4 4 3 3 3 5 3 5 9 14 15 9 7 10 9 9 7 1 2 4 4 3 5 4 5 6
23 20 20 18 17 16 14 12 16 23 18 3 4 4 3 16 2 2 6 5 4 5 5 3 3 7 3 4 5 4 4 4 3 4 4 5 8 7 6 16 8 8 11 7 6 4 5 5 5 4 5 5 4 6
23 22 20 19 17 17 15 13 12 8 3 9 11 7 3 2 2 4 7 6 7 9 6 7 4 3 4 2 3 4 4 1 6 5 1 7 9 5 5 4 9 9 9 8 4 6 4 4 5 4 4 4 5 6
24 22 21 19 19 18 15 17 16 30 19 4 4 5 5 4 5 7 11 7 8 8 9 8 7 5 4 2 4 3 6 6 4 3 8 11 2 4 6 6 4 4 7 8 4 3 4 2 2 4 4 5 7 7
24 22 21 19 19 19 16 18 25 20 5 4 7 8 8 6 8 9 5 2 2 5 13 11 6 5 4 5 4 5 2 3 4 6 12 5 9 9 7 6 10 9 8 8 8 7 6 6 5 5 6 5 5 6
24 22 21 19 18 20 18 14 31 2 4 5 5 8 10 6 3 2 4 3 3 10 14 7 5 3 4 5 4 6 5 8 10 10 5 2 8 12 11 10 10 10 8 7 5 6 6 5 4 3 3 2 3 5
24 21 17 18 19 20 16 8 14 2 2 5 6 3 1 5 3 3 4 5 7 11 4 2 5 5 5 6 7 12 10 14 7 6 3 7 12 13 13 10 10 10 10 8 7 6 6 6 5 4 1 2 4 3
24 7 15 17 19 19 15 5 3 6 6 5 4 1 4 3 2 6 5 6 11 11 6 5 10 8 6 5 8 10 11 4 3 3 5 9 15 15 13 11 10 9 9 8 7 7 7 5 4 1 2 2 1 3
9 8 14 18 16 5 3 2 5 6 7 3 4 4 4 1 4 4 5 11 9 6 4 5 5 6 9 9 7 5 7 2 1 4 6 10 13 13 12 13 10 9 9 7 6 6 5 6 4 3 3 1 2 4
10 8 16 17 8 5 5 3 2 4 0 2 2 1 1 1 1 4 4 12 1 0 5 3 5 7 7 5 5 3 4 5 5 4 4 9 12 13 13 11 10 8 8 7 6 5 4 5 4 3 2 2 2 3
20 19 16 20 9 4 3 2 1 3 4 2 2 3 1 1 2 4 7 7 3 2 3 6 8 4 4 3 3 3 5 7 10 9 7 6 7 11 12 12 8 8 7 6 4 9 4 2 3 4 3 2 2 3
13 6 13 7 4 4 3 3 2 1 2 3 2 2 1 0 2 3 5 4 3 5 6 6 4 2 2 0 0 4 8 11 10 8 12 10 8 8 8 6 8 6 5 5 5 4 7 4 3 3 3 1 2 2
4 9 5 4 4 3 3 1 3 1 3 2 2 2 3 3 2 3 4 4 5 8 5 3 2 3 2 2 3 4 7 7 7 9 12 17 10 9 8 8 8 6 6 6 5 5 4 4 4 3 3 3 2 1
10 4 4 3 5 2 3 1 3 3 4 3 1 2 2 3 3 4 4 6 7 4 4 3 3 1 3 1 3 4 5 9 9 9 10 9 8 8 8 8 7 9 5 3 4 4 4 8 5 4 3 2 1 1
4 4 4 4 4 5 3 2 2 3 2 3 4 4 3 2 2 2 6 5 4 3 5 7 5 3 2 2 3 5 4 5 7 6 7 11 10 7 8 8 6 5 5 5 5 4 4 3 7 3 3 3 1 2
6 3 4 3 2 6 4 4 4 3 5 5 4 2 3 3 4 4 5 5 2 5 6 7 8 8 8 5 4 5 3 8 9 10 4 7 10 8 6 5 5 4 5 7 6 6 4 3 3 4 3 3 3 3
4 3 6 5 2 5 6 6 7 6 5 4 4 3 3 3 5 9 4 2 4 4 2 4 6 6 5 5 8 7 7 3 8 7 5 9 11 12 11 11 7 2 4 5 7 7 6 5 5 6 4 5 7 4
7 4 1 2 3 4 3 1 2 3 6 7 5 6 5 6 8 2 2 4 4 4 6 6 6 4 3 3 4 5 6 4 2 4 8 5 4 6 11 12 10 5 9 8 8 8 9 7 6 6 4 3 3 4
2 3 6 5 2 1 5 4 5 7 4 3 7 6 7 4 2 4 4 5 6 6 7 5 5 6 3 6 7 9 7 6 9 10 9 8 5 3 5 5 5 17 9 9 8 7 7 7 6 6 5 5 4 3
2 1 3 4 3 3 2 3 2 2 3 2 3 2 3 3 4 5 5 8 8 6 5 4 3 4 5 6 6 4 6 8 9 11 11 7 4 2 1 4 6 5 6 7 15 11 10 7 7 6 6 5 4 3
1 2 2 2 4 3 2 2 1 1 1 1 1 3 3 2 2 4 6 6 7 6 5 4 3 1 2 4 6 6 5 4 4 3 9 10 8 7 8 6 7 5 5 6 6 4 14 8 6 6 4 2 2 2
1 1 3 3 3 1 1 1 1 1 0 2 2 2 3 3 2 3 10 8 7 8 7 6 7 8 5 4 3 6 5 2 3 5 4 5 7 7 8 7 6 6 5 6 5 4 3 3 3 4 6 6 6 5
3 2 2 3 2 2 1 1 1 1 1 2 3 2 2 2 4 6 7 9 7 8 11 9 7 7 8 5 5 5 6 5 4 4 6 5 5 5 6 5 6 6 6 6 5 4 4 6 5 5 6 7 6 5
2 2 2 3 3 2 2 2 2 3 3 3 3 3 3 4 5 4 4 5 3 5 5 5 4 4 5 6 5 5 8 2 5 8 11 12 13 11 6 5 5 6 7 6 5 5 5 6 4 5 5 5 5 5
Wind_Direction
343 347 339 355 356 221 203 203 204 204 200 200 195 193 188 184 180 173 125 167 129 187 205 266 197 143 97 206 166 161 87 302 127 186 189 217 185 221 340 245 188 182 165 210 218 280 286 153 306 142 230 322 316 330
329 325 332 331 355 3 254 211 206 207 200 197 195 193 189 183 179 186 127 170 105 110 111 1 28 19 43 46 123 174 202 150 179 133 290 48 222 135 192 276 64 278 194 203 184 233 154 207 209 274 325 292 312 333
314 312 306 311 326 331 320 8 263 216 204 199 194 191 188 186 182 181 131 147 90 111 293 120 200 155 46 24 348 133 239 139 75 149 132 113 239 108 211 233 246 249 155 226 18 308 260 286 287 353 345 310 314 297
291 295 295 296 293 304 304 336 347 272 219 205 197 192 185 183 182 173 160 174 113 126 197 159 159 123 7 312 51 42 108 58 99 61 120 167 216 125 243 231 211 198 138 204 257 278 282 270 157 350 321 326 322 321
276 281 289 292 292 289 295 293 321 336 292 218 207 199 187 178 174 168 109 190 172 143 167 122 18 137 123 132 102 106 126 130 145 124 154 218 220 92 246 19 239 182 195 178 224 196 152 236 19 338 320 304 310 302
277 267 276 287 289 292 286 285 286 296 348 274 214 200 187 168 147 109 280 229 179 144 116 189 71 170 111 108 122 134 124 78 142 158 200 188 88 142 260 247 240 202 205 177 192 68 23 294 305 314 308 313 299 312
270 271 265 272 283 288 291 286 280 286 293 350 226 201 180 159 149 161 191 294 159 117 107 247 208 145 138 135 145 116 271 200 162 185 210 177 203 184 241 243 250 198 201 206 163 107 295 187 236 327 291 298 313 297
266 269 265 262 272 283 291 297 298 288 286 313 269 182 156 136 78 2 14 112 8 89 95 224 128 165 194 150 145 199 147 216 218 214 94 177 116 225 253 236 204 162 86 232 210 183 168 141 359 310 320 326 320 315
256 259 265 263 264 273 289 296 301 308 294 26 99 98 78 58 151 104 108 32 355 97 200 169 164 178 156 110 87 203 211 195 42 249 237 155 193 225 229 204 198 179 185 223 164 155 81 162 288 291 303 313 303 306
247 252 257 257 256 261 276 289 296 295 121 118 79 106 163 171 120 107 59 88 29 264 273 234 73 138 162 132 156 145 193 216 206 231 113 229 253 258 240 207 187 173 165 139 108 298 228 262 220 246 242 252 239 271
241 245 250 250 248 253 259 275 287 144 135 46 93 72 61 133 126 131 134 166 187 226 186 165 135 140 230 149 148 206 185 166 211 222 192 248 259 239 198 190 170 161 163 175 140 135 134 144 170 199 278 274 291 288
236 241 245 248 242 245 251 263 230 156 123 119 104 94 123 225 258 158 176 167 198 213 158 147 148 116 142 151 121 178 167 125 238 139 181 259 251 184 144 170 157 153 159 163 146 155 170 188 200 197 236 262 267 270
230 233 238 242 244 237 239 251 220 128 111 84 88 122 158 162 204 214 194 204 188 161 167 162 138 138 138 158 107 151 169 207 115 202 233 234 210 153 156 145 110 101 118 132 142 145 149 197 193 190 255 252 268 278
223 226 233 236 238 232 232 242 167 156 106 147 151 165 203 183 222 200 217 206 175 148 142 139 118 143 135 147 147 152 141 122 218 236 235 236 194 160 148 130 132 166 166 166 175 178 182 207 222 224 223 240 261 286
220 222 228 232 229 229 229 246 177 163 140 174 186 203 197 213 228 157 121 89 13 143 145 112 98 133 137 132 178 110 158 229 219 230 224 187 151 148 155 157 148 153 162 173 165 168 186 208 210 240 261 242 268 289
216 222 222 227 229 225 227 225 185 82 204 194 210 186 177 167 179 199 192 131 147 154 113 94 143 166 177 154 156 204 173 220 221 216 182 131 145 157 162 161 154 153 164 164 167 169 174 175 192 206 356 300 269 271
212 213 208 218 221 221 207 113 147 207 224 185 204 183 210 304 200 158 150 171 157 157 196 163 175 184 114 185 210 190 213 213 179 174 150 158 160 160 154 149 144 153 152 157 157 161 157 157 136 169 246 272 338 292
201 184 193 200 197 160 45 143 204 190 196 167 181 191 185 162 142 136 152 160 166 198 161 202 126 190 198 199 215 205 207 114 237 159 145 146 148 147 149 143 143 152 151 160 157 145 136 149 166 223 183 207 296 292
186 171 194 194 128 130 151 189 233 189 202 110 89 346 338 203 70 115 171 173 273 42 131 182 207 210 210 215 209 146 167 182 164 134 113 129 137 139 135 131 136 141 151 156 149 148 162 177 165 151 144 116 249 275
191 188 197 148 105 117 139 121 279 124 171 179 104 164 233 294 139 130 161 165 166 167 231 223 220 222 216 213 170 145 158 150 136 130 123 121 127 126 140 146 153 149 142 148 140 142 137 166 192 167 143 197 228 261
166 92 103 75 65 61 39 122 82 126 140 148 137 142 133 194 179 143 164 153 213 220 237 233 218 237 87 316 286 129 158 160 176 170 160 149 154 137 133 123 130 139 151 167 152 177 179 188 186 143 128 183 230 248
101 161 97 69 90 89 80 307 123 148 104 148 128 147 157 167 154 157 121 202 234 244 220 199 204 169 184 218 206 184 168 142 120 126 132 130 144 149 154 149 145 161 167 164 164 170 177 165 142 129 156 201 233 235
131 91 89 111 101 86 130 246 131 160 128 171 87 148 187 186 142 123 218 228 238 209 190 199 174 92 136 93 144 129 145 147 139 145 153 141 137 140 139 149 153 150 155 176 148 156 161 169 174 163 175 139 120 281
81 83 116 130 105 129 138 157 101 111 106 183 174 202 193 137 112 199 249 247 228 145 188 184 138 104 66 155 207 179 165 132 117 113 136 134 138 149 153 148 146 133 149 144 143 148 141 131 172 151 150 147 176 192
110 163 140 137 130 122 127 143 168 160 171 192 147 185 188 174 197 221 245 267 220 204 202 188 190 196 181 185 164 179 179 159 151 147 145 145 126 117 113 112 124 136 131 139 155 154 163 157 143 153 168 160 188 210
183 148 163 159 160 144 169 148 181 177 142 161 194 107 149 184 208 238 215 352 3 354 315 223 215 220 216 182 165 175 179 150 138 140 158 157 158 154 156 153 151 186 165 155 146 159 165 163 169 170 178 225 231 180
163 189 152 11 108 111 95 76 95 145 176 178 167 169 170 204 232 239 47 41 340 357 317 304 306 284 197 106 87 93 117 104 115 138 126 124 118 152 158 160 169 181 162 163 162 160 166 172 177 169 182 207 195 187
128 167 159 173 136 142 144 165 179 198 188 148 134 186 199 230 338 350 358 358 323 308 292 289 313 311 116 119 129 127 109 104 89 95 93 62 41 45 94 97 113 152 150 159 156 142 154 163 168 163 162 189 214 208
117 173 107 123 145 178 162 189 194 74 2 179 192 167 103 61 4 334 317 323 315 303 316 341 6 359 59 76 86 103 146 145 136 137 147 156 148 221 88 107 119 130 141 144 163 156 155 153 162 162 178 183 195 167
227 324 103 125 155 166 94 2 59 7 13 30 40 115 99 92 43 331 337 344 356 349 330 318 315 359 83 110 120 86 38 30 1 161 170 181 183 136 152 150 143 143 130 129 129 133 180 170 178 159 125 128 131 133
314 169 82 66 92 69 63 10 245 240 10 56 357 49 92 129 154 34 12 351 351 2 16 15 24 15 44 71 95 126 112 40 38 52 72 99 119 140 155 155 150 140 133 131 137 141 138 121 126 142 164 180 199 186
3 46 129 120 117 118 233 247 162 115 95 77 42 40 135 128 59 17 4 358 6 22 19 15 8 9 349 354 21 13 41 122 90 67 82 96 94 105 119 123 127 131 127 131 142 141 126 147 155 175 184 195 201 205
119 88 92 119 127 187 169 223 168 119 73 76 55 34 38 41 73 9 356 18 9 355 356 345 332 342 357 356 3 24 44 42 154 118 105 115 130 132 115 111 111 113 127 133 141 138 150 145 164 175 179 192 202 203